Regional Weather Roundup
Issued by NWS

Home | Current Version | Previous Version | Text Only | Print | Product List | Glossary Off
Versions: 1 2 3 4 5 6 7 8 9 10 11 12 13 14 15 16 17 18 19 20 21 22 23 24 25 26 27 28 29 30 31 32 33 34 35 36 37 38 39 40 41 42 43 44 45 46 47 48 49 50

000
ASUS43 KLOT 022008
RWRIL

ILLINOIS REGIONAL WEATHER ROUNDUP
NATIONAL WEATHER SERVICE CHICAGO/ROMEOVILLE IL
300 PM CDT MON MAY 02 2016

NOTE: "FAIR" INDICATES FEW OR NO CLOUDS BELOW 12,000 FEET WITH NO
SIGNIFICANT WEATHER AND/OR OBSTRUCTIONS TO VISIBILITY.

* THESE STATIONS ARE NOT UNDER NWS QUALITY CONTROL. THEY ALSO MAY NOT
  REPORT WEATHER SUCH AS PRECIPITATION OR FOG.

ILZ001-002-007-009-015-016-024-022100-
NORTHWEST ILLINOIS

CITY           SKY/WX    TMP DP  RH WIND       PRES   REMARKS
MOLINE         CLOUDY    60  41  49 NE10      30.04F
STERLING*      CLOUDY    61  43  51 E10       30.05S
SAVANNA*       CLOUDY    59  39  46 N9        30.05F
$$

ILZ003-004-008-010-011-017-018-022100-
NORTH CENTRAL ILLINOIS

CITY           SKY/WX    TMP DP  RH WIND       PRES   REMARKS
ROCKFORD       CLOUDY    61  38  42 NE13      30.06F
FREEPORT*      CLOUDY    57  40  52 NE7       30.07S
ROCHELLE*      CLOUDY    58  39  48 E10G16    30.04F
DE KALB*       MOSUNNY   61  38  42 NE16      30.04F
$$

ILZ005-006-012>014-019>023-022100-
NORTHEAST ILLINOIS

CITY           SKY/WX    TMP DP  RH WIND       PRES   REMARKS
CHICAGO-OHARE  PTSUNNY   57  35  43 NE14      30.04F
CHICAGO-MIDWAY MOSUNNY   58  35  42 N16       30.04F
AURORA         MOSUNNY   62  38  40 NE15      30.03F
LANSING*       SUNNY     54  40  60 N13       30.05S
JOLIET*        SUNNY     61  38  41 N13       30.03F
WAUKEGAN       SUNNY     56  37  49 NE12      30.05S
DUPAGE AIRPORT SUNNY     60  35  39 E18       30.03S
KANKAKEE*      SUNNY     58  38  47 N8G18     30.02F
WHEELING       SUNNY     56  35  45 NE10      30.06F
MORRIS*        SUNNY     60  37  41 NE8       30.03S
ROMEOVILLE*    SUNNY     58  36  43 E15G21    30.04S
NORTHERLY ISL    N/A     50  40  68 NW13        N/A
NORTHERLY ISL    N/A     50  40  68 NW13        N/A
$$

LMZ740>746-022100-
SOUTHERN LAKE MICHIGAN

STATION/POSITION SKY/WX   TEMP    WIND        PRES    VSBY  WAVE
                          AIR SEA DIR/SP/G                  HT/PER
                          (F)     (DEG/KT/KT) (MB)    (MI)  (FT/S)
SOUTHERN BUOY              42 41  310/  2/  4 1018.0F         1/ 3
HARRISON CRIB              45     360/ 13/ 14   N/A
BURNHAM HARBOR             49     360/  8/ 14   N/A
CALUMET HARBOR             48     360/ 11/ 16 1017.4S
BURNS HARBOR               45      10/ 10/ 14 1018.3S
MICHIGAN CITY              45     360/ 12/ 13   N/A
ST. JOSEPH                 46 48                N/A           2/ 4
$$

ILZ025>027-034>036-040-047-049-050-058-095>099-022100-
WEST-CENTRAL ILLINOIS

CITY           SKY/WX    TMP DP  RH WIND       PRES   REMARKS
QUINCY         CLOUDY    53  47  79 N6        30.05F
GALESBURG*     CLOUDY    56  45  68 N8        30.05F
MACOMB*        CLOUDY    54  46  75 N7        30.08S
JACKSONVILLE*  CLOUDY    53  47  81 NE8       30.05S
PITTSFIELD*    CLOUDY    55  49  80 N6        30.06S
$$

ILZ028>032-037-038-041>044-048-051>054-059>061-022100-
CENTRAL ILLINOIS

CITY           SKY/WX    TMP DP  RH WIND       PRES   REMARKS
PONTIAC        MOSUNNY   60  45  56 NE15G21   30.03F
BLOOMINGTON    CLOUDY    56  46  69 NE8       30.04F
DECATUR        CLOUDY    56  47  71 N10       30.02F
PEORIA         CLOUDY    58  44  60 VRB3      30.04F
LACON*         CLOUDY    58  40  51 NE3       30.03F
LINCOLN*       CLOUDY    55  48  79 CALM      30.03F
SPRINGFIELD    CLOUDY    55  47  74 N7        30.05F
TAYLORVILLE    CLOUDY    52  48  87 N8        30.04F
$$

ILZ033-039-045-046-055>057-062-063-022100-
EAST-CENTRAL ILLINOIS

CITY           SKY/WX    TMP DP  RH WIND       PRES   REMARKS
CHAMPAIGN      CLOUDY    56  47  71 N10       30.01F
RANTOUL*       CLOUDY    57  49  73 N9        30.01F
MATTOON        CLOUDY    55  48  77 N7        30.01F
PARIS*         CLOUDY    53  50  89 NW3       30.01F
$$

ILZ079-100>102-022100-
SOUTHWEST ILLINOIS

CITY           SKY/WX    TMP DP  RH WIND       PRES   REMARKS
BELLEVILLE     PTSUNNY   56  50  80 VRB5      30.02F
CAHOKIA*       CLOUDY    57  47  69 N7        30.04F
SPARTA*        CLOUDY    56  48  76 N6        30.04S
$$

ILZ064>066-069>071-074>076-080>082-084>086-088>090-092>094-022100-
SOUTH-CENTRAL ILLINOIS

CITY           SKY/WX    TMP DP  RH WIND       PRES   REMARKS
CARBONDALE     CLOUDY    61  48  62 NW13      30.02F
CAIRO*         CLOUDY    64  53  65 W8        29.99F
EFFINGHAM*     CLOUDY    56  51  85 W8        30.03F
MARION         CLOUDY    61  50  67 NW12      30.01F
MT. VERNON     CLOUDY    57  46  67 W5        30.03F
CENTRALIA*     CLOUDY    55  51  85 NW8       30.02F
SALEM*         CLOUDY    58  49  72 NW6       30.02F
METROPOLIS*    CLOUDY    66  54  65 NW6       29.98F
$$

ILZ067-068-072-073-078-083-087-091-022100-
SOUTHEAST ILLINOIS

CITY           SKY/WX    TMP DP  RH WIND       PRES   REMARKS
LAWRENCEVILLE  CLOUDY    58  49  72 NW9       30.00
FLORA*         CLOUDY    59  50  71 NW13      30.01F
FAIRFIELD*     CLOUDY    57  50  77 NW7       30.01S
HARRISBURG*    CLOUDY    61  51  70 NW8       30.00F
ROBINSON*      CLOUDY    56  50  80 N9        30.01F
CARMI*         CLOUDY    60  52  76 NW9       29.99F
$$

ABBREVIATIONS USED IN REMARKS
   TC - TEMPERATURE IN CELSIUS
  WCI - WIND CHILL INDEX
   HX - HEAT INDEX
  VSB - VISIBILITY
$$





USA.gov is the U.S. government's official web portal to all federal, state and local government web resources and services.